WetterOnline ( https://www.wetteronline.de )

Wetter aktuell Jicin

Aktuelles Wetter: Pec Pod Snezkou (820m)

6-stündlich | Neueste Meldungen
Ortszeit Temperatur Wetter
Di, 27.10. 19:00 4.8° C bewölkt
Di, 27.10. 13:00 5.4° C leichter Regen
Di, 27.10. 7:00 4.8° C leichter Regen
Di, 27.10. 1:00 7.3° C Sprühregen
Mo, 26.10. 19:00 7.8° C Sprühregen
Mo, 26.10. 13:00 9.0° C bedeckt
Mo, 26.10. 7:00 6.9° C bedeckt
Mo, 26.10. 1:00 6.5° C -
Ortszeit Temperatur Wetter
Mi, 28.10. 0:00 4.7° C -
Di, 27.10. 23:00 4.6° C -
Di, 27.10. 22:00 4.3° C -
Di, 27.10. 21:00 4.6° C bewölkt
Di, 27.10. 20:00 4.9° C wolkig
Di, 27.10. 19:00 4.8° C bewölkt
Ortszeit Relative Feuchte Sichtweite
Di, 27.10. 19:00 91% 15 km
Di, 27.10. 13:00 88% 15 km
Di, 27.10. 7:00 95% 20 km
Di, 27.10. 1:00 99% 3.1 km
Mo, 26.10. 19:00 95% 10 km
Mo, 26.10. 13:00 85% 20 km
Mo, 26.10. 7:00 95% 20 km
Mo, 26.10. 1:00 94% 9 km
Ortszeit Relative Feuchte Sichtweite
Mi, 28.10. 0:00 87% 35 km
Di, 27.10. 23:00 87% 35 km
Di, 27.10. 22:00 88% 35 km
Di, 27.10. 21:00 89% 20 km
Di, 27.10. 20:00 89% 10 km
Di, 27.10. 19:00 91% 15 km
Ortszeit Niederschlagsmenge Niederschlagsart
Di, 27.10. 19:00 0.8 l/m2 in 12 Std. Regen
Di, 27.10. 13:00 0.7 l/m2 in 6 Std. Regen
Di, 27.10. 7:00 3 l/m2 in 12 Std. -
Di, 27.10. 1:00 0.9 l/m2 in 6 Std. Schauer
Mo, 26.10. 19:00 0.4 l/m2 in 12 Std. Regen
Mo, 26.10. 13:00 0.1 l/m2 in 6 Std. Sprühregen
Mo, 26.10. 7:00 0.0 l/m2 in 12 Std. -
Mo, 26.10. 1:00 0.0 l/m2 in 6 Std. -
Ortszeit Niederschlagsmenge Niederschlagsart
Mi, 28.10. 0:00 0.0 l/m2 in 1 Std. -
Di, 27.10. 23:00 0.0 l/m2 in 1 Std. -
Di, 27.10. 22:00 0.0 l/m2 in 1 Std. -
Di, 27.10. 21:00 0.0 l/m2 in 1 Std. -
Di, 27.10. 20:00 0.0 l/m2 in 1 Std. -
Di, 27.10. 19:00 0.0 l/m2 in 1 Std. Regen
Ortszeit Stärke Spitze Richtung
km/h Bft. km/h Grad Sektor
Di, 27.10. 19:00 14 3 - 190° S
Di, 27.10. 13:00 11 2 - 180° S
Di, 27.10. 7:00 4 1 - 210° SW
Di, 27.10. 1:00 4 1 - uml. uml.
Mo, 26.10. 19:00 7 2 - 190° S
Mo, 26.10. 13:00 11 2 - 220° SW
Mo, 26.10. 7:00 4 1 - uml. uml.
Mo, 26.10. 1:00 4 1 - uml. uml.
Ortszeit Stärke Spitze Richtung
km/h Bft. km/h Grad Sektor
Mi, 28.10. 0:00 11 2 - 220° SW
Di, 27.10. 23:00 11 2 - 210° SW
Di, 27.10. 22:00 4 1 - uml. uml.
Di, 27.10. 21:00 11 2 - 200° S
Di, 27.10. 20:00 11 2 - 200° S
Di, 27.10. 19:00 14 3 - 190° S
Ortszeit Untergrenze Bedeckung Gattung
total tief tief mittel hoch
Di, 27.10. 19:00 240 m 7/8 7/8 St - -
Di, 27.10. 13:00 390 m 8/8 8/8 Sc - -
Di, 27.10. 7:00 300 m 8/8 8/8 Sc - -
Di, 27.10. 1:00 210 m - 8/8 - - -
Mo, 26.10. 19:00 120 m 8/8 8/8 St - -
Mo, 26.10. 13:00 330 m 8/8 8/8 Sc - -
Mo, 26.10. 7:00 210 m 8/8 8/8 St - -
Mo, 26.10. 1:00 120 m - 8/8 - - -
Ortszeit Bedeckungsgrad in Achtel und Wolkenuntergrenze
Mi, 28.10. 0:00 8(360m)
Di, 27.10. 23:00 7(330m)
Di, 27.10. 22:00 5(420m)
Di, 27.10. 21:00 7(540m)
Di, 27.10. 20:00 6(240m)
Di, 27.10. 19:00 7(240m)
Ortszeit Stationsdruck (hPa) Tendenz (hPa in 3 Std.)
Di, 27.10. 19:00 918 + 1,0
Di, 27.10. 13:00 917 + 0,8
Di, 27.10. 7:00 915 + 1,7
Di, 27.10. 1:00 913 + 0,6
Mo, 26.10. 19:00 911 + 1,1
Mo, 26.10. 13:00 910 - 1,6
Mo, 26.10. 7:00 912 - 1,7
Mo, 26.10. 1:00 915 - 0,7
Ortszeit Stationsdruck (hPa) Tendenz (hPa in 3 Std.)
Mi, 28.10. 0:00 919 - 0,1
Di, 27.10. 23:00 919 + 0,5
Di, 27.10. 22:00 919 + 0,4
Di, 27.10. 21:00 919 + 0,7
Di, 27.10. 20:00 918 + 0,7
Di, 27.10. 19:00 918 + 1,0
Ortszeit Schneehöhe (cm)
Di, 27.10. 19:00 -
Di, 27.10. 13:00 -
Di, 27.10. 7:00 -
Di, 27.10. 1:00 -
Mo, 26.10. 19:00 -
Mo, 26.10. 13:00 -
Mo, 26.10. 7:00 -
Mo, 26.10. 1:00 -
Ortszeit Schneehöhe (cm)
Mi, 28.10. 0:00 -
Di, 27.10. 23:00 -
Di, 27.10. 22:00 -
Di, 27.10. 21:00 -
Di, 27.10. 20:00 -
Di, 27.10. 19:00 -
Link zu dieser Seite / Seite empfehlen

Das Wetter in ...